www.pogodaiklimat.ru

Погода и климат >> Архив погоды >> Китай >> Гуанси-Чжуанский автономный район >> Гуйлинь


ПОГОДА в Гуйлине

  • Прогноз погоды в Гуйлине
  • Монитор погоды в Гуйлине

АРХИВ ПОГОДЫ в Гуйлине

Время (UTC), дата Ветер
(напр.,м/с)
 
Видим.   Явления Облачность Т
(С)
Тd
(С)
f
(%)
Тe
(С)
Тes
(С)
Комфортность P
(гПа)
Po
(гПа)
Тmin
(С)
Tmax
(С)
R
(мм)
R24
(мм)
S
(см)
00 13.09 СВ 1 н/о дымка ясно +28.5 +24.7 80 +41 +43 опасность
перегрева
1009.5 990.9
03 13.09 Ю 2 9000 м 1/1 600 м
[]
+33.2 +23.5 57 +44 +58 опасность
перегрева
1009.0 990.5
06 13.09 С 2 19 км 3/3 600 м
[]
+36.7 +21.7 42 +45 +56 опасность
перегрева
1006.2 987.8 +26.8
09 13.09 ЮЗ 2 22 км 3/3 600 м
[]
+37.1 +21.2 40 +44 +47 опасность
перегрева
1004.8 986.6
12 13.09 З 2 19 км 3/3 600 м
[]
+34.2 +22.3 50 +43 +43 опасность
перегрева
1006.2 987.7
15 13.09 Ю 1 11 км в посл. час дождь н/о +30.7 +24.4 69 +43 +43 опасность
перегрева
1008.2 989.6
18 13.09 Ю 1 6000 м слаб. дождь ?/? +27.3 +25.7 91 +40 +40 очень
душно
1008.7 990.2 +37.8 1
21 13.09 штиль 0 8000 м н/о +26.2 +24.8 92 +37 +37 очень
душно
1008.2 989.3
00 14.09 ЮЗ 1 н/о в посл. час дождь ясно +27.0 +25.2 90 +39 +42 очень
душно
1010.0 991.4 5
03 14.09 СВ 1 8000 м ясно +32.4 +25.5 67 +47 +65 опасность
перегрева
1009.6 991.0
06 14.09 С 3 10 км 3/3 600 м
[]
+36.3 +22.5 45 +45 +55 опасность
перегрева
1006.5 988.0 +26.0
09 14.09 Ю 2 10 км 4/4 600 м
[]
+35.1 +23.1 50 +45 +47 опасность
перегрева
1005.4 987.1
12 14.09 В 1 9000 м 9/9 1500 м
[]
+32.7 +22.8 56 +43 +43 опасность
перегрева
1007.5 988.9
15 14.09 Ю 1 10 км н/о +30.5 +23.7 67 +42 +42 опасность
перегрева
1009.2 990.5
18 14.09 С 1 7000 м н/о +29.3 +23.5 71 +40 +40 очень
душно
1008.7 990.2 +37.8
21 14.09 С 2 7000 м дымка н/о +27.9 +22.4 72 +37 +37 очень
душно
1008.7 989.9
00 15.09 СВ 2 7000 м дымка ясно +28.0 +22.2 71 +37 +39 очень
душно
1010.4 991.8
03 15.09 В 2 7000 м ясно +31.5 +22.8 60 +41 +57 опасность
перегрева
1010.3 991.7
06 15.09 СВ 1 9000 м 1/1 600 м
[]
+34.6 +22.3 49 +44 +61 опасность
перегрева
1007.0 988.5 +27.1
09 15.09 ЮВ 3 8000 м 9/9 600 м
[]
+33.8 +23.5 55 +45 +45 опасность
перегрева
1005.6 987.2
12 15.09 С 2 6000 м дымка {дождь} 9/9 600 м
[]
+30.4 +23.8 68 +42 +42 опасность
перегрева
1007.8 989.1 2
15 15.09 С 2 7000 м мгла н/о +29.3 +23.0 69 +39 +39 очень
душно
1009.0 990.3
18 15.09 С 2 6000 м дымка ?/? +28.6 +23.1 72 +38 +38 очень
душно
1008.8 990.3 +35.7
21 15.09 С 3 6000 м дымка н/о +27.8 +23.0 75 +37 +37 очень
душно
1009.0 990.2
00 16.09 С 3 6000 м дымка ясно +27.9 +22.4 72 +37 +38 очень
душно
1010.5 991.8
03 16.09 С 4 9000 м ясно +31.8 +22.2 57 +41 +51 опасность
перегрева
1010.6 992.0
06 16.09 С 2 11 км 1/1 600 м
[]
+34.3 +21.7 48 +42 +57 опасность
перегрева
1007.0 988.5 +27.5
09 16.09 СВ 3 6000 м 1/1 600 м
[]
+34.8 +20.7 44 +42 +44 опасность
перегрева
1005.5 987.1
12 16.09 СВ 4 7000 м ясно +30.3 +22.2 62 +39 +39 очень
душно
1007.0 988.3
15 16.09 С 5 6000 м мгла н/о +28.6 +21.9 67 +37 +37 очень
душно
1009.3 990.5
18 16.09 С 3 6000 м мгла ?/? +27.5 +21.5 70 +35 +35 очень
душно
1009.6 991.0 +35.3
21 16.09 С 2 н/о дымка н/о +26.1 +21.3 75 +33 +33 очень
душно
1010.3 991.3
00 17.09 С 3 6000 м дымка ясно +26.7 +21.0 71 +34 +35 очень
душно
1012.1 993.3
03 17.09 С 4 6000 м мгла 1/1 600 м
[]
+30.0 +21.4 60 +38 +47 очень
душно
1013.1 994.3
06 17.09 В 4 9000 м ясно +32.0 +21.2 53 +40 +51 опасность
солнечного
удара
1010.1 991.4 +25.8
09 17.09 С 3 10 км ясно +32.8 +20.3 48 +39 +42 очень
душно
1008.4 989.9
12 17.09 С 2 8000 м ясно +29.6 +21.0 60 +37 +37 очень
душно
1010.8 992.0
15 17.09 С 4 7000 м н/о +28.3 +21.3 66 +36 +36 очень
душно
1012.5 993.6
18 17.09 С 2 7000 м мгла ?/? +27.5 +21.1 68 +35 +35 очень
душно
1012.7 994.0 +33.5
21 17.09 С 3 6000 м дымка н/о +26.2 +20.5 71 +33 +33 очень
душно
1013.0 994.0
00 18.09 С 3 6000 м дымка 8/8 600 м
[]
+26.1 +20.0 69 +32 +32 очень
душно
1015.5 996.6
03 18.09 С 3 8000 м 10/10 600 м
[]
+28.4 +20.2 61 +35 +35 очень
душно
1016.2 997.3
06 18.09 С 4 10 км 1/1 600 м
[]
+30.5 +19.8 53 +37 +46 очень
душно
1013.8 995.0 +25.8
09 18.09 СВ 7 8000 м 4/4 600 м
[]
+28.8 +19.4 57 +35 +35 очень
душно
1013.7 994.8
12 18.09 С 4 7000 м 4/4 600 м
[]
+25.5 +18.9 67 +30 +30 душно 1016.1 997.1
15 18.09 С 6 6000 м мгла н/о +24.0 +18.2 70 +28 +28 душно 1017.2 998.0
18 18.09 С 3 6000 м дымка ?/? +23.2 +18.3 74 +29 +29 душно 1016.3 997.3 +31.2
21 18.09 С 3 6000 м дымка н/о +22.8 +18.1 75 +28 +28 душно 1016.4 997.1
00 19.09 С 2 7000 м дымка 3/3 600 м
[]
+23.3 +18.2 73 +29 +31 душно 1017.9 998.7
03 19.09 С 4 9000 м 1/1 600 м
[]
+26.4 +17.7 59 +31 +40 душно 1017.5 998.4
06 19.09 С 2 14 км ясно +30.7 +16.7 43 +34 +50 очень
душно
1013.5 994.6 +22.6
09 19.09 СВ 4 14 км 1/1 600 м
[]
+30.2 +17.6 47 +34 +36 очень
душно
1012.2 993.4
12 19.09 С 4 11 км 3/3 600 м
[]
+27.0 +18.0 58 +32 +32 очень
душно
1013.5 994.5
15 19.09 С 2 11 км н/о +25.6 +17.5 61 +30 +30 душно 1014.8 995.7
18 19.09 С 2 8000 м н/о +24.1 +17.4 66 +28 +28 душно 1013.8 994.9 +31.7
21 19.09 С 2 8000 м н/о +23.1 +17.3 70 +28 +28 душно 1013.2 994.0

 

Местоположение метеостанции Гуйлинь (Гуанси-Чжуанский автономный район, Китай): широта 25.33 долгота 110.30 высота над уровнем моря 166 м.

В архиве по умолчанию представлена погода в Гуйлине за последнюю неделю. Архивные данные за месяц целиком и за предыдущие месяцы, начиная с января 2011 года, Вы можете получить, выбрав интересующий диапазон дат из раскрывающегося списка и нажав кнопку "Ввод!".


*Определитесь, кто Вы:
робот инопланетянин человек

Внимание! Время в таблицах - всемирное. Для получения местного времени необходимо прибавить поправку, которая равна 8 ч.

Смотрите также архив погоды в соседних городах и на ближайших метеорологических станциях:

Погода в Тундао (Хунань, Китай) (107 км)
Погода в Мэншане (Гуанси-Чжуанский автономный район, Китай) (127 км)
Погода в Лючжоу (Гуанси-Чжуанский автономный район, Китай) (142 км)
Погода в Угугане (Хунань, Китай) (159 км)
Погода в Линлине (Хунань, Китай) (165 км)
Погода в Рунцзяне (Гуйчжоу, Китай) (191 км)
Погода в Гуйпине (Гуанси-Чжуанский автономный район, Китай) (216 км)
Погода в Лиан Сиань (Гуандун, Китай) (218 км)
Погода в Учжоу (Гуанси-Чжуанский автономный район, Китай) (229 км)
Погода в Хэчи (Гуанси-Чжуанский автономный район, Китай) (237 км)

Пояснения к столбцам:

Ветер - указаны скорость ветра в м/с - средняя за 10 мин, порывы в срок и между сроками (в фигурных скобках) и направление, откуда дует ветер: С - северный, СВ - северо-восточный, В - восточный, ЮВ - юго-восточный, Ю - южный, ЮЗ - юго-западный, З - западный, СЗ - северо-западный.
Видимость - горизонтальная дальность видимости в метрах или километрах. При видимости от 1 до 10 км при отсутствии осадков обычно наблюдается дымка, при ухудшении видимости до 1 км и менее - туман. В сухую погоду видимость может ухудшаться дымом, пылью или мглою.
Явления - указаны атмосферные явления, наблюдавшиеся в срок или в последний час перед сроком; фигурными скобками обозначены явления, наблюдавшиеся между сроками (за 1-3 часа до срока); квадратными скобками обозначены град или гололедные отложения с указанием их диаметра в мм.
Облачность - указаны через наклонную черту общая и нижняя облачность в баллах и высота нижней границы облаков в метрах; квадратными скобками обозначены формы облаков: Ci - перистые, Cs - перисто-слоистые, Cc - перисто-кучевые, Ac - высококучевые, As - высокослоистые, Sc - слоисто-кучевые, Ns - слоисто-дождевые, Cu - кучевые, Cb - кучево-дождевые. Подробнее классификацию облаков см. в Атласе облаков (PDF).
T - Температура воздуха - температура, измеренная на высоте 2 м над землей.
Td - Температура точки росы - температура, при понижении до которой содержащийся в воздухе водяной пар достигнет насыщения.
f - Относительная влажность воздуха - влажноcть воздуха, измеренная на высоте 2 м над землей.
Te - Эффективная температура - температура, которую ощущает одетый по сезону человек в тени. Характеристика душности погоды. При расчете учитывается влияние влажности воздуха и скорости ветра на теплоощущения человека.
Tes - Эффективная температура на солнце - температура, которую ощущает человек, с поправкой на солнечный нагрев. Характеристика знойности погоды. Зависит от высоты солнца над горизонтом, облачности и скорости ветра. Ночью, в пасмурную погоду, а также при ветре 12 м/с и более поправка равна нулю.
P - Атмосферное давление - приведенное к уровню моря атмосферное давление.
Po - Атмосферное давление - измеренное на уровне метеостанции атмосферное давление.
Tmin - Минимальная температура - минимум температуры воздуха на высоте 2 м над землей.
Tmax - Максимальная температура - максимум температуры воздуха на высоте 2 м над землей.
R - Количество осадков - Количество выпавших осадков за период времени, мм. При наведении курсора мыши на число - период времени, за который выпало указанное количество осадков.
R24 - Количество осадков - Количество выпавших осадков за 24 часа, мм.
S - Снежный покров - Высота снежного покрова, см. При наведении курсора мыши на число - состояние снежного покрова и степень покрытия местности в баллах.